N7WWK-1 Weather Reports


time (UTC)temp
C
wind
direction
speed
KPH
gust
KPH
rain 1hr
cm
rain 24hr
cm
rain mn
cm
humidity
%
barometer
mb
20260510150005 28 256 1.6 4.8 0.00 1.45 0.00 79 1014.8
20260510145005 28 214 1.6 4.8 0.00 1.45 0.00 79 1014.7
20260510144005 28 194 1.6 6.4 0.00 1.45 0.00 80 1014.7
20260510143005 28 188 1.6 4.8 0.00 1.45 0.00 80 1014.7
20260510142005 27 193 1.6 9.7 0.00 1.45 0.00 82 1014.7
20260510141005 27 212 1.6 4.8 0.00 1.45 0.00 84 1014.6
20260510140005 27 203 1.6 3.2 0.00 1.45 0.00 84 1014.7
20260510135005 26 196 1.6 6.4 0.00 1.45 0.00 88 1014.6
20260510134005 25 172 1.6 4.8 0.00 1.45 0.00 89 1014.1
20260510133005 24 175 1.6 4.8 0.00 1.45 0.00 93 1014.3
20260510132005 23 216 1.6 6.4 0.00 1.45 0.00 98 1014.4
20260510131005 23 335 1.6 4.8 0.00 1.45 0.00 99 1014.4
20260510130005 23 168 0.0 3.2 0.00 1.45 0.00 99 1014.0
20260510125005 22 167 0.0 1.6 0.00 1.45 0.00 99 1014.0
20260510124216 22 0 0.0 0.0 0.00 1.45 0.00 99 1013.9
20260510123005 22 0 0.0 0.0 0.00 1.45 0.00 99 1013.9
20260510122005 22 0 0.0 0.0 0.00 1.45 0.00 99 1013.7
20260510121005 22 0 0.0 0.0 0.00 1.45 0.00 99 1013.7
20260510120005 21 78 0.0 1.6 0.00 1.45 0.00 99 1013.7
20260510115005 21 0 0.0 0.0 0.00 1.45 0.00 99 1013.6
20260510114005 21 0 0.0 0.0 0.00 1.45 0.00 99 1013.3
20260510113005 21 0 0.0 0.0 0.00 1.45 0.00 99 1013.1
20260510112005 21 0 0.0 0.0 0.00 1.45 0.00 99 1012.9
20260510111005 21 0 0.0 0.0 0.00 1.45 0.00 99 1012.9
20260510110005 21 0 0.0 0.0 0.00 1.45 0.00 99 1013.0
20260510105217 21 0 0.0 0.0 0.00 1.45 0.00 99 1012.6
20260510104217 21 0 0.0 0.0 0.00 1.45 0.00 99 1012.5
20260510103005 21 77 0.0 0.0 0.00 1.45 0.00 99 1012.7
20260510102005 21 77 0.0 1.6 0.00 1.45 0.00 99 1012.4
20260510101004 21 0 0.0 0.0 0.00 1.45 0.00 99 1012.3
20260510100005 21 76 0.0 1.6 0.00 1.45 0.00 99 1012.1
20260510095217 21 122 0.0 1.6 0.00 1.45 0.00 99 1012.0
20260510094005 21 0 0.0 0.0 0.00 1.45 0.00 99 1011.8
20260510093005 21 0 0.0 0.0 0.00 1.45 0.00 99 1011.7
20260510092005 21 120 0.0 1.6 0.00 1.45 0.00 99 1011.8
20260510091005 21 0 0.0 0.0 0.00 1.45 0.00 99 1011.4
20260510090005 21 0 0.0 0.0 0.00 1.45 0.00 99 1011.2
20260510085004 21 0 0.0 0.0 0.00 1.45 0.00 99 1011.5
20260510084005 21 0 0.0 0.0 0.00 1.45 0.00 99 1011.3
20260510083005 21 145 0.0 1.6 0.00 1.45 0.00 99 1011.4
20260510082004 21 126 0.0 1.6 0.00 1.45 0.00 99 1010.9
20260510081217 21 172 0.0 1.6 0.00 1.45 0.00 99 1011.0
20260510080005 21 158 0.0 3.2 0.00 1.45 0.00 99 1011.2
20260510075218 22 156 0.0 1.6 0.00 1.45 0.00 99 1011.2
20260510074214 22 174 0.0 3.2 0.00 1.45 0.00 99 1010.9
20260510073005 22 142 0.0 3.2 0.00 1.45 0.00 99 1011.0
20260510072216 21 142 0.0 1.6 0.00 1.45 0.00 99 1011.1
20260510071217 21 125 0.0 1.6 0.00 1.45 0.00 99 1010.9
20260510070005 22 185 0.0 1.6 0.00 1.45 0.00 99 1011.2
20260510065004 22 154 1.6 6.4 0.00 1.45 0.00 99 1010.9
20260510064005 22 146 0.0 3.2 0.00 1.45 0.00 99 1011.0
20260510063216 22 154 0.0 1.6 0.00 1.45 0.00 99 1011.5
20260510062217 22 153 0.0 4.8 0.00 1.45 0.00 99 1011.6
20260510061005 22 141 0.0 3.2 0.00 1.45 0.00 99 1011.9
20260510060006 22 144 0.0 3.2 0.00 1.45 0.00 99 1011.8
20260510055004 21 140 0.0 3.2 0.00 1.45 0.00 99 1012.1
20260510054216 21 134 0.0 1.6 0.00 1.45 0.00 99 1012.3
20260510053004 22 161 0.0 3.2 0.00 1.45 0.00 99 1012.4
20260510052004 22 0 0.0 0.0 0.00 1.45 0.00 99 1012.6
20260510051005 22 0 0.0 0.0 0.00 1.45 0.00 99 1012.6
20260510050005 22 0 0.0 0.0 0.00 1.45 0.00 99 1012.7
20260510045004 22 0 0.0 0.0 0.00 1.45 0.00 99 1013.0
20260510044216 22 0 0.0 0.0 0.00 1.45 0.00 99 1013.0
20260510043004 22 148 0.0 1.6 0.00 1.45 0.00 99 1012.9
20260510042005 22 0 0.0 0.0 0.00 1.45 0.00 99 1013.0
20260510041005 22 0 0.0 0.0 0.00 1.45 0.00 99 1013.1
20260510040020 22 0 0.0 0.0 0.00 1.45 0.00 99 1013.3
20260510035005 22 0 0.0 0.0 0.00 1.45 1.45 99 1013.1
20260510034004 22 0 0.0 0.0 0.00 1.45 1.45 99 1013.1
20260510033218 22 0 0.0 0.0 0.00 1.45 1.45 99 1013.1
20260510032005 22 0 0.0 0.0 0.00 1.45 1.45 99 1013.0
20260510031004 22 0 0.0 0.0 0.00 1.45 1.45 99 1013.1
20260510030005 22 0 0.0 0.0 0.00 1.45 1.45 99 1012.9
20260510025005 22 0 0.0 0.0 0.00 1.45 1.45 99 1012.9
20260510024217 22 0 0.0 0.0 0.00 1.45 1.45 99 1013.0
20260510023005 22 65 0.0 1.6 0.00 1.45 1.45 99 1012.7
20260510022214 22 78 0.0 3.2 0.00 1.45 1.45 99 1012.5
20260510021004 22 0 0.0 0.0 0.00 1.45 1.45 99 1012.6
20260510020005 22 0 0.0 0.0 0.00 1.45 1.45 99 1012.0
20260510015004 22 73 0.0 3.2 0.00 1.45 1.45 99 1012.7
20260510014218 22 73 0.0 3.2 0.00 1.45 1.45 99 1012.0
20260510013005 22 86 0.0 3.2 0.00 1.45 1.45 99 1012.1
20260510012004 22 89 0.0 1.6 0.00 1.45 1.45 99 1011.7
20260510011004 22 0 0.0 0.0 0.00 1.45 1.45 99 1011.5
20260510010005 22 0 0.0 0.0 0.00 1.45 1.45 99 1011.5
20260510005004 22 103 0.0 1.6 0.00 1.45 1.45 99 1011.6
20260510004214 22 57 0.0 3.2 0.00 1.45 1.45 99 1011.8
20260510003005 22 24 0.0 3.2 0.00 1.45 1.45 99 1011.7
20260510002004 22 36 1.6 4.8 0.00 1.45 1.45 99 1011.8
20260510001217 22 29 1.6 3.2 0.00 1.47 1.45 99 1011.7
20260510000005 22 31 1.6 6.4 0.00 1.50 1.45 99 1011.6
20260509235004 22 6 1.6 4.8 0.00 1.50 1.45 99 1011.3
20260509234214 22 33 1.6 4.8 0.00 1.50 1.45 99 1011.4
20260509233215 22 360 3.2 6.4 0.00 1.50 1.45 99 1011.3
20260509232004 22 7 3.2 6.4 0.00 1.50 1.45 99 1011.6
20260509231005 23 15 1.6 6.4 0.00 1.50 1.45 99 1011.2
20260509230005 23 13 1.6 4.8 0.00 1.50 1.45 99 1011.0
20260509225004 23 28 0.0 4.8 0.00 1.50 1.45 99 1011.2
20260509224005 23 11 1.6 4.8 0.00 1.50 1.45 99 1010.9
20260509223005 23 28 1.6 6.4 0.00 1.55 1.45 99 1010.9
20260509222005 23 39 1.6 4.8 0.00 1.55 1.45 99 1010.7
20260509221005 23 23 1.6 4.8 0.00 1.55 1.45 99 1011.0
20260509220005 23 53 0.0 3.2 0.00 1.55 1.45 99 1011.1
20260509215215 23 46 1.6 3.2 0.00 1.57 1.45 99 1011.1
20260509214005 23 36 0.0 3.2 0.00 1.60 1.45 99 1011.0
20260509213005 23 20 0.0 1.6 0.00 1.60 1.45 99 1010.9
20260509212005 23 0 0.0 0.0 0.00 1.63 1.45 99 1010.9
20260509211005 22 0 0.0 0.0 0.00 1.63 1.45 99 1010.8
20260509210005 23 0 0.0 0.0 0.05 2.21 1.45 99 1010.9
20260509205005 22 0 0.0 0.0 0.15 2.59 1.45 99 1011.0
20260509204216 22 0 0.0 0.0 0.36 2.67 1.45 99 1010.9
20260509203004 23 53 0.0 1.6 1.24 2.79 1.45 99 1010.8
20260509202005 22 0 0.0 0.0 1.27 2.79 1.45 99 1010.9
20260509201005 22 38 0.0 3.2 1.35 2.79 1.45 99 1011.0
20260509200005 22 14 3.2 6.4 1.40 2.74 1.40 98 1011.2
20260509195005 22 10 3.2 8.0 1.30 2.64 1.30 98 1010.9
20260509194217 22 355 8.0 24.1 1.09 2.44 1.14 97 1011.4
20260509193005 24 33 1.6 4.8 0.20 1.55 0.20 95 1010.8
20260509192004 25 97 0.0 1.6 0.18 1.52 0.18 94 1010.6
20260509191004 26 54 0.0 1.6 0.10 1.45 0.10 90 1010.5
20260509190006 27 1 0.0 1.6 0.00 1.35 0.00 84 1010.8
20260509185005 27 346 3.2 9.7 0.00 1.35 0.00 80 1010.5
20260509184004 28 354 3.2 6.4 0.00 1.35 0.00 79 1010.6
20260509183004 28 3 1.6 6.4 0.00 1.35 0.00 78 1010.7
20260509182005 28 294 1.6 4.8 0.00 1.35 0.00 75 1010.9
20260509181005 28 349 1.6 4.8 0.00 1.35 0.00 76 1011.0
20260509180216 28 322 1.6 6.4 0.00 1.35 0.00 76 1011.1
20260509175004 28 354 3.2 9.7 0.00 1.35 0.00 78 1011.3
20260509174005 28 287 1.6 4.8 0.00 1.35 0.00 76 1011.5
20260509173005 28 48 1.6 6.4 0.00 1.35 0.00 76 1011.2
20260509172004 28 296 1.6 4.8 0.00 1.35 0.00 77 1011.5
20260509171005 27 350 3.2 9.7 0.00 1.35 0.00 78 1011.2
20260509170217 28 233 1.6 4.8 0.00 1.35 0.00 78 1011.5
20260509165004 27 261 1.6 4.8 0.00 1.35 0.00 77 1011.7
20260509164005 28 184 1.6 3.2 0.00 1.35 0.00 78 1011.9
20260509163004 27 248 1.6 3.2 0.00 1.35 0.00 80 1012.0
20260509162004 27 345 1.6 4.8 0.00 1.35 0.00 81 1011.7
20260509161005 26 270 1.6 4.8 0.00 1.35 0.00 80 1011.5
20260509160005 27 204 1.6 3.2 0.00 1.35 0.00 82 1011.5
20260509155004 27 162 0.0 1.6 0.00 1.35 0.00 83 1011.8
20260509154004 26 151 1.6 4.8 0.00 1.35 0.00 85 1011.8
20260509153215 26 228 1.6 6.4 0.00 1.35 0.00 86 1011.8
20260509152005 25 164 1.6 3.2 0.00 1.35 0.00 87 1011.6
20260509151217 25 152 1.6 4.8 0.00 1.35 0.00 88 1011.5